Regional Weather Roundup
Issued by NWS

Home | Current Version | Previous Version | Text Only | Print | Product List | Glossary Off
Versions: 1 2 3 4 5 6 7 8 9 10 11 12 13 14 15 16 17 18 19 20 21 22 23 24 25 26 27 28 29 30 31 32 33 34 35 36 37 38 39 40 41 42 43 44 45 46 47 48 49 50

000
ASUS45 KCYS 181710
RWRWY

WYOMING REGIONAL WEATHER ROUNDUP
NATIONAL WEATHER SERVICE CHEYENNE WY
1000 AM MST SUN FEB 18 2018

NOTE:  "FAIR" INDICATES FEW OR NO CLOUDS BELOW 12,000 FEET
WITH NO SIGNIFICANT WEATHER AND/OR OBSTRUCTIONS TO VISIBILITY.

WYZ001-181800-
YELLOWSTONE NATIONAL PARK

CITY           SKY/WX    TMP DP  RH WIND       PRES   REMARKS
LK YELLOWSTONE   N/A     22  18  85 W8G18     29.41S WCI  12
W YELLOWSTONE  NOT AVBL

$$
WYZ002>013-054>058-071-098>099-181800-
NORTHERN WYOMING

CITY           SKY/WX    TMP DP  RH WIND       PRES   REMARKS
JACKSON        FLURRIES  28  23  81 S22       29.48R WCI  14
CODY           SNOW       8   4  83 MISG      29.63R VSB 1/2
GREYBULL       LGT SNOW  14  12  92 NW24      29.57R VSB 3/4 WCI  -5
WORLAND        CLOUDY    16  11  80 NW16      29.60R WCI   1
SHERIDAN       SNOW      11   7  84 NW14      29.73R VSB 1/2 WCI  -5
BUFFALO        HVY SNOW  10   7  87 N28G35    29.60R VSB 1/4 WCI -12
GILLETTE       FOG       13   9  84 N23       29.64R VSB 1/2 WCI  -6
HULETT         LGT SNOW  16  12  86 MISG      29.66R
NEWCASTLE      FAIR      30  27  86 NW22      29.55R WCI  17

$$
WYZ014>020-022>026-101>103-181800-
CENTRAL WYOMING

CITY           SKY/WX    TMP DP  RH WIND       PRES   REMARKS
BIG PINEY      CLOUDY    31  23  72 NW22G30   29.52R WCI  18
PINEDALE       CLOUDY    28  23  80 NW21      29.53R WCI  15
DUBOIS         NOT AVBL
LANDER         CLOUDY    43  26  51 W9        29.39R
RIVERTON       CLOUDY    35  28  75 N15       29.42R WCI  25
CASPER         CLOUDY    33  25  72 N13       29.49R WCI  24
DOUGLAS        CLOUDY    32  27  81 NE12      29.52S WCI  23

$$
WYZ021-027>030-104>119-181800-
SOUTHERN WYOMING

CITY           SKY/WX    TMP DP  RH WIND       PRES   REMARKS
EVANSTON       CLOUDY    39  17  41 SW26G53   29.54S WCI  28
ROCK SPRINGS   CLOUDY    44  11  26 SW21      29.52F
DIXON          FAIR      40  20  45 SW21G30   29.62F WCI  30
RAWLINS        FAIR      42  16  34 SW28G47   29.51F
SARATOGA       FAIR      43  14  31 SW31G44   29.55S
LARAMIE        FAIR      46  11  24 SW39G48   29.49F
CHEYENNE       FAIR      53   7  15 W22G31    29.52S
TORRINGTON     FAIR      46  26  45 N20       29.47R
PINE BLUFFS    FAIR      41  18  38 MISG      29.52F

$$



USA.gov is the U.S. government's official web portal to all federal, state and local government web resources and services.